BOTAN

Last updated on Sun Dec 14 2025 00:02:12 GMT+0000 (Coordinated Universal Time)

1 65942U 98067XP 25346.84619684 .00139962 00000+0 14970-2 0 9994 2 65942 51.6286 138.7562 0003106 238.0921 121.9771 15.62906067 9888
UTC large
Height (km)
Speed (km/s)
/
Latitude / Longitude
Inclination (degrees)
Orbital Period (minutes)
Azimuth
Elevation
Range (km)
Doppler Factor

Next 0 passes for location: London (51.5072 / 0.1276)

Sorry there are no passes over London.